Regional Weather Roundup
Issued by NWS

Home | Current Version | Previous Version | Text Only | Print | Product List | Glossary Off
Versions: 1 2 3 4 5 6 7 8 9 10 11 12 13 14 15 16 17 18 19 20 21 22 23 24 25 26 27 28 29 30 31 32 33 34 35 36 37 38 39 40 41 42 43 44 45 46 47 48 49 50

000
ASUS43 KFSD 190302
RWRSD

WEATHER ROUNDUP FOR SOUTH DAKOTA
NATIONAL WEATHER SERVICE SIOUX FALLS SD
1000 PM CDT THU SEP 18 2014

NOTE: "FAIR" INDICATES FEW OR NO CLOUDS BELOW 12,000 FEET WITH NO
SIGNIFICANT WEATHER AND/OR OBSTRUCTIONS TO VISIBILITY.


SDZ001>005-009-010-012>017-190400-
NORTHWEST AND NORTH CENTRAL SOUTH DAKOTA

CITY           SKY/WX    TMP DP  RH WIND       PRES   REMARKS
FAITH            N/A     69  64  84 SE14      29.71S
MOBRIDGE       MOCLDY    68  61  78 SE14      29.70S
$$

SDZ012>016-024>037-041>051-057-063-072>074-190400-
SOUTHWEST AND SOUTH CENTRAL SOUTH DAKOTA

CITY           SKY/WX    TMP DP  RH WIND       PRES   REMARKS
RAPID CTY ARPT MOCLDY    71  53  52 SE6       29.73R
PIERRE         CLEAR     70  58  65 SE12      29.73R
CUSTER         PTCLDY    71  45  39 VRB5      29.92R
ELLSWORTH AFB  MOCLDY    76  54  47 SE8       29.73R
PHILIP         PTCLDY    70  63  78 E7        29.70S
PINE RIDGE     CLEAR     73  63  70 S20G25    29.79R
WINNER         FAIR      70  62  76 S15       29.79F
$$

SDZ004>011-016>023-039-040-190400-
NORTHEAST SOUTH DAKOTA

CITY           SKY/WX    TMP DP  RH WIND       PRES   REMARKS
ABERDEEN       CLOUDY    68  57  68 S16       29.78S
WATERTOWN      MOCLDY    63  55  75 S15       29.86F
$$

SDZ017-020-022-023-036>040-048>070-190400-
SOUTHEAST SOUTH DAKOTA

CITY           SKY/WX    TMP DP  RH WIND       PRES   REMARKS
SIOUX FALLS    MOCLDY    65  56  72 SE16G23   29.91S
HURON          PTCLDY    67  57  70 SE15G21   29.82S
CHAMBERLAIN    CLEAR     64  59  85 SE10      29.80S
MITCHELL       CLEAR     67  59  75 SE15      29.85S
YANKTON        PTCLDY    64  57  77 SE15      29.90R
$$

ABBREVIATIONS USED IN REMARKS
   TC - TEMPERATURE IN CELSIUS
  WCI - WIND CHILL INDEX
   HX - HEAT INDEX
  VSB - VISIBILITY



USA.gov is the U.S. government's official web portal to all federal, state and local government web resources and services.